| time (UTC) | temp F | wind direction | speed MPH | gust MPH | rain 1hr in | rain 24hr in | rain mn in | humidity % | barometer mb |
| 20260508110015 | 58 | 220 | 8.0 | 13.0 | 0.00 | 0.01 | 0.01 | 61 | 1016.0 |
| 20260508104519 | 57 | 246 | 7.0 | 14.0 | 0.00 | 0.01 | 0.01 | 64 | 1016.0 |
| 20260508103011 | 58 | 227 | 6.0 | 12.0 | 0.00 | 0.01 | 0.01 | 65 | 1015.8 |
| 20260508101509 | 58 | 196 | 5.0 | 10.0 | 0.00 | 0.01 | 0.01 | 63 | 1015.8 |
| 20260508100008 | 57 | 199 | 6.0 | 10.0 | 0.00 | 0.01 | 0.01 | 62 | 1015.8 |
| 20260508094509 | 57 | 170 | 5.0 | 13.0 | 0.00 | 0.01 | 0.01 | 64 | 1015.7 |
| 20260508093009 | 56 | 196 | 6.0 | 11.0 | 0.00 | 0.01 | 0.01 | 60 | 1015.7 |
| 20260508091501 | 56 | 174 | 7.0 | 15.0 | 0.00 | 0.01 | 0.01 | 58 | 1015.7 |
| 20260508090059 | 55 | 211 | 6.0 | 13.0 | 0.00 | 0.01 | 0.01 | 64 | 1015.4 |
| 20260508084553 | 54 | 214 | 6.0 | 12.0 | 0.00 | 0.01 | 0.01 | 67 | 1015.4 |
| 20260508083106 | 53 | 178 | 5.0 | 13.0 | 0.00 | 0.01 | 0.01 | 70 | 1015.4 |
| 20260508081551 | 53 | 189 | 7.0 | 12.0 | 0.00 | 0.01 | 0.01 | 74 | 1015.3 |
| 20260508080044 | 51 | 174 | 5.0 | 13.0 | 0.00 | 0.01 | 0.01 | 76 | 1015.2 |
| 20260508074549 | 51 | 168 | 5.0 | 12.0 | 0.00 | 0.01 | 0.01 | 78 | 1015.2 |
| 20260508073039 | 50 | 198 | 5.0 | 10.0 | 0.00 | 0.01 | 0.01 | 80 | 1015.1 |
| 20260508071638 | 50 | 143 | 4.0 | 10.0 | 0.00 | 0.01 | 0.01 | 82 | 1014.9 |
| 20260508070033 | 49 | 210 | 5.0 | 10.0 | 0.00 | 0.01 | 0.01 | 84 | 1014.8 |
| 20260508064530 | 49 | 192 | 4.0 | 9.0 | 0.00 | 0.01 | 0.01 | 85 | 1014.7 |
| 20260508063026 | 49 | 205 | 4.0 | 10.0 | 0.00 | 0.01 | 0.01 | 85 | 1014.6 |
| 20260508061524 | 48 | 205 | 2.0 | 8.0 | 0.00 | 0.01 | 0.01 | 85 | 1014.5 |
| 20260508060023 | 48 | 193 | 4.0 | 9.0 | 0.00 | 0.01 | 0.01 | 85 | 1014.3 |
| 20260508054520 | 47 | 170 | 4.0 | 9.0 | 0.00 | 0.01 | 0.01 | 85 | 1014.2 |
| 20260508053016 | 47 | 190 | 3.0 | 7.0 | 0.00 | 0.01 | 0.01 | 85 | 1014.0 |
| 20260508051515 | 47 | 166 | 3.0 | 10.0 | 0.00 | 0.01 | 0.01 | 85 | 1013.9 |
| 20260508050012 | 47 | 186 | 3.0 | 10.0 | 0.00 | 0.01 | 0.01 | 84 | 1013.8 |
| 20260508044510 | 47 | 183 | 5.0 | 13.0 | 0.00 | 0.01 | 0.01 | 84 | 1013.7 |
| 20260508043008 | 47 | 184 | 4.0 | 10.0 | 0.00 | 0.01 | 0.01 | 84 | 1013.7 |
| 20260508041506 | 47 | 179 | 5.0 | 12.0 | 0.00 | 0.01 | 0.01 | 84 | 1013.6 |
| 20260508040009 | 47 | 175 | 7.0 | 13.0 | 0.00 | 0.01 | 0.01 | 83 | 1013.4 |
| 20260508034507 | 47 | 169 | 9.0 | 13.0 | 0.01 | 0.01 | 0.01 | 83 | 1013.3 |
| 20260508033001 | 47 | 175 | 5.0 | 12.0 | 0.01 | 0.01 | 0.01 | 83 | 1013.4 |
| 20260508031559 | 47 | 190 | 6.0 | 13.0 | 0.01 | 0.01 | 0.01 | 82 | 1013.3 |
| 20260508030056 | 47 | 180 | 4.0 | 13.0 | 0.01 | 0.01 | 0.01 | 81 | 1013.3 |
| 20260508024558 | 48 | 180 | 8.0 | 15.0 | 0.00 | 0.00 | 0.00 | 78 | 1013.3 |
| 20260508023052 | 48 | 172 | 9.0 | 16.0 | 0.00 | 0.00 | 0.00 | 78 | 1013.4 |
| 20260508021553 | 48 | 153 | 6.0 | 9.0 | 0.00 | 0.00 | 0.00 | 78 | 1013.3 |
| 20260508020053 | 48 | 167 | 4.0 | 12.0 | 0.00 | 0.00 | 0.00 | 78 | 1013.2 |
| 20260508014549 | 48 | 170 | 8.0 | 15.0 | 0.00 | 0.00 | 0.00 | 78 | 1013.2 |
| 20260508013047 | 48 | 195 | 7.0 | 13.0 | 0.00 | 0.00 | 0.00 | 78 | 1013.2 |
| 20260508011546 | 48 | 202 | 8.0 | 16.0 | 0.00 | 0.00 | 0.00 | 78 | 1013.3 |
| 20260508010044 | 49 | 190 | 10.0 | 16.0 | 0.00 | 0.00 | 0.00 | 78 | 1013.3 |
| 20260508004545 | 48 | 157 | 8.0 | 13.0 | 0.00 | 0.00 | 0.00 | 77 | 1013.3 |
| 20260508003041 | 49 | 186 | 5.0 | 14.0 | 0.00 | 0.00 | 0.00 | 77 | 1013.3 |
| 20260508001540 | 49 | 172 | 8.0 | 15.0 | 0.00 | 0.00 | 0.00 | 77 | 1013.4 |
| 20260508000038 | 49 | 192 | 7.0 | 15.0 | 0.00 | 0.00 | 0.00 | 77 | 1013.4 |
| 20260507234537 | 49 | 199 | 9.0 | 18.0 | 0.00 | 0.00 | 0.00 | 77 | 1013.3 |
| 20260507233037 | 48 | 153 | 6.0 | 10.0 | 0.00 | 0.00 | 0.00 | 77 | 1013.2 |
| 20260507231531 | 48 | 178 | 6.0 | 11.0 | 0.00 | 0.00 | 0.00 | 77 | 1013.3 |
| 20260507230029 | 48 | 188 | 6.0 | 11.0 | 0.00 | 0.00 | 0.00 | 78 | 1013.2 |
| 20260507224534 | 48 | 182 | 3.0 | 10.0 | 0.00 | 0.00 | 0.00 | 79 | 1013.2 |
| 20260507223028 | 49 | 178 | 3.0 | 8.0 | 0.00 | 0.00 | 0.00 | 79 | 1013.2 |
| 20260507221527 | 49 | 190 | 5.0 | 10.0 | 0.00 | 0.00 | 0.00 | 78 | 1013.2 |
| 20260507220026 | 49 | 196 | 5.0 | 13.0 | 0.00 | 0.00 | 0.00 | 78 | 1013.1 |
| 20260507214528 | 49 | 161 | 7.0 | 14.0 | 0.00 | 0.00 | 0.00 | 78 | 1013.0 |
| 20260507213026 | 50 | 165 | 7.0 | 13.0 | 0.00 | 0.00 | 0.00 | 78 | 1013.0 |
| 20260507211525 | 50 | 160 | 5.0 | 11.0 | 0.00 | 0.00 | 0.00 | 76 | 1013.1 |
| 20260507210038 | 50 | 182 | 6.0 | 13.0 | 0.00 | 0.00 | 0.00 | 75 | 1013.1 |
| 20260507204524 | 51 | 177 | 6.0 | 11.0 | 0.00 | 0.00 | 0.00 | 74 | 1013.0 |
| 20260507203023 | 51 | 196 | 5.0 | 14.0 | 0.00 | 0.00 | 0.00 | 73 | 1013.0 |
| 20260507201523 | 51 | 171 | 6.0 | 12.0 | 0.00 | 0.00 | 0.00 | 73 | 1012.8 |
| 20260507200026 | 52 | 175 | 5.0 | 13.0 | 0.00 | 0.00 | 0.00 | 72 | 1012.6 |
| 20260507194526 | 52 | 194 | 4.0 | 11.0 | 0.00 | 0.00 | 0.00 | 72 | 1012.5 |
| 20260507193023 | 52 | 161 | 5.0 | 14.0 | 0.00 | 0.00 | 0.00 | 71 | 1012.4 |
| 20260507191521 | 52 | 147 | 6.0 | 13.0 | 0.00 | 0.00 | 0.00 | 70 | 1012.3 |
| 20260507190023 | 53 | 169 | 6.0 | 11.0 | 0.00 | 0.00 | 0.00 | 68 | 1012.2 |
| 20260507184520 | 53 | 161 | 7.0 | 13.0 | 0.00 | 0.00 | 0.00 | 68 | 1012.3 |
| 20260507183025 | 53 | 188 | 6.0 | 13.0 | 0.00 | 0.00 | 0.00 | 68 | 1012.3 |
| 20260507181519 | 53 | 137 | 3.0 | 10.0 | 0.00 | 0.00 | 0.00 | 68 | 1012.2 |
| 20260507180021 | 53 | 160 | 4.0 | 13.0 | 0.00 | 0.00 | 0.00 | 68 | 1012.2 |
| 20260507174521 | 53 | 191 | 6.0 | 14.0 | 0.00 | 0.00 | 0.00 | 67 | 1012.3 |
| 20260507173019 | 53 | 171 | 8.0 | 14.0 | 0.00 | 0.00 | 0.00 | 67 | 1012.4 |
| 20260507171516 | 55 | 177 | 7.0 | 13.0 | 0.00 | 0.00 | 0.00 | 67 | 1012.3 |
| 20260507170016 | 55 | 167 | 7.0 | 15.0 | 0.00 | 0.00 | 0.00 | 67 | 1012.4 |
| 20260507164515 | 55 | 196 | 9.0 | 16.0 | 0.00 | 0.00 | 0.00 | 67 | 1012.5 |
| 20260507163014 | 55 | 159 | 8.0 | 15.0 | 0.00 | 0.00 | 0.00 | 68 | 1012.5 |
| 20260507161514 | 55 | 167 | 9.0 | 20.0 | 0.00 | 0.00 | 0.00 | 69 | 1012.6 |
| 20260507160016 | 55 | 157 | 7.0 | 14.0 | 0.00 | 0.00 | 0.00 | 69 | 1012.5 |
| 20260507154521 | 55 | 163 | 5.0 | 15.0 | 0.00 | 0.00 | 0.00 | 70 | 1012.5 |
| 20260507153027 | 55 | 175 | 7.0 | 12.0 | 0.00 | 0.00 | 0.00 | 69 | 1012.7 |
| 20260507151509 | 55 | 182 | 7.0 | 15.0 | 0.00 | 0.00 | 0.00 | 68 | 1012.7 |
| 20260507150009 | 55 | 186 | 7.0 | 18.0 | 0.00 | 0.00 | 0.00 | 72 | 1012.8 |
| 20260507144509 | 55 | 167 | 7.0 | 13.0 | 0.00 | 0.00 | 0.00 | 73 | 1012.8 |
| 20260507143009 | 54 | 161 | 7.0 | 13.0 | 0.00 | 0.00 | 0.00 | 73 | 1012.9 |
| 20260507141506 | 53 | 168 | 5.0 | 10.0 | 0.00 | 0.00 | 0.00 | 75 | 1013.2 |
| 20260507140010 | 52 | 182 | 6.0 | 13.0 | 0.00 | 0.00 | 0.00 | 72 | 1013.3 |
| 20260507134506 | 52 | 187 | 5.0 | 12.0 | 0.00 | 0.00 | 0.00 | 73 | 1013.3 |
| 20260507133005 | 52 | 231 | 6.0 | 12.0 | 0.00 | 0.00 | 0.00 | 74 | 1013.4 |
| 20260507131508 | 52 | 172 | 6.0 | 12.0 | 0.00 | 0.00 | 0.00 | 75 | 1013.4 |
| 20260507130012 | 52 | 205 | 4.0 | 12.0 | 0.00 | 0.00 | 0.00 | 76 | 1013.4 |
| 20260507124503 | 51 | 179 | 7.0 | 13.0 | 0.00 | 0.00 | 0.00 | 74 | 1013.5 |
| 20260507123002 | 52 | 182 | 6.0 | 13.0 | 0.00 | 0.00 | 0.00 | 71 | 1013.5 |
| 20260507121502 | 54 | 168 | 6.0 | 13.0 | 0.00 | 0.00 | 0.00 | 70 | 1013.4 |
| 20260507120002 | 54 | 205 | 5.0 | 14.0 | 0.00 | 0.00 | 0.00 | 69 | 1013.5 |
| 20260507114501 | 55 | 213 | 7.0 | 12.0 | 0.00 | 0.00 | 0.00 | 66 | 1013.5 |
| 20260507113103 | 55 | 180 | 7.0 | 14.0 | 0.00 | 0.00 | 0.00 | 65 | 1013.5 |
| 20260507111600 | 56 | 197 | 5.0 | 15.0 | 0.00 | 0.00 | 0.00 | 63 | 1013.4 |